User: anonymous   Login
Location: Unspecified
(0.0000°N, 0.0000°E)
Time: 02:38:49
(UTC+01:00)
Language:

Helios 1A Rocket - Orbit

View from above orbital plane
View from above orbital plane
View from above satellite
View from above satellite

Ground track
Ground track

The orbit data is extracted from the following two-line orbital elements,

1 23608U 95033D   15064.57150192  .00002495  00000-0  23957-3 0  9994
2 23608 098.2643 304.6432 0018761 121.9349 238.3696 14.93952361 63028
Epoch (UTC): 05 March 2015 13:42:57
Eccentricity: 0.0018761
inclination: 98.2643°
perigee height: 572 km
apogee height: 598 km
right ascension of ascending node: 304.6432°
argument of perigee: 121.9349°
revolutions per day: 14.93952361
mean anomaly at epoch: 238.3696°
orbit number at epoch: 6302

The dashed part of the orbit path shows where the satellite is in the earth's shadow,  

DLR